Location: Demmingen
(48.6757°N, 10.4375°E)
Time: 13:14:34
(UTC+00:00)

CZ-2C R/B - Pass Details

Date: 09 August 2024
Orbit: 782 x 869 km, 98.3° (Epoch: 15 September)

Event Time Altitude Azimuth Distance (km) Brightness Sun altitude
Exits shadow 02:50:16 12° 252° (WSW) 2,336 4.4 -11.0°
Maximum altitude 02:52:10 14° 274° (W) 2,200 4.4 -10.8°
Drops below altitude 10° 02:55:01 10° 305° (NW) 2,477 5.0 -10.4°
Sets 02:58:38 0° 330° (NNW) 3,399 6.0 -9.9°
